Fort Lewis, WA

6:43 AM PST on December 15, 2017 (GMT -0800)
Gray Army Air Field

Weather History for KGRF - August, 2013

Change the Weather History Date:

Tuesday, August 6, 2013

  Actual Average Record
Temperature  
Mean Temperature 70 °F -  
Max Temperature 86 °F 78 °F 86 °F (2006)
Min Temperature 54 °F 53 °F 46 °F (1996)
Cooling Degree Days 5    
Growing Degree Days 20 (Base 50)    
Moisture  
Dew Point 53 °F    
Average Humidity 61    
Maximum Humidity 91    
Minimum Humidity 29    
Precipitation  
Precipitation 0.00 in - - ()
Sea Level Pressure  
Sea Level Pressure 29.98 in    
Wind  
Wind Speed 5 mph (West)    
Max Wind Speed 10 mph    
Max Gust Speed -    
Visibility 10 miles    
Events      
Averages and records for this station are not official NWS values.
T = Trace of Precipitation, MM = Missing Value Source: NWS Daily Summary

Daily Weather History Graph

Daily Weather History Graph

Search for Another Location

Airport or City:

Trip Planner

Search our weather history database for the weather conditions in past years. The results will help you decide how hot, cold, wet, or windy it might be!

Date:

Astronomy

Aug. 06, 2013 Rise Set
Actual Time 5:56 AM PDT 8:35 PM PDT
Civil Twilight 5:21 AM PDT 9:09 PM PDT
Nautical Twilight 4:37 AM PDT 9:53 PM PDT
Astronomical Twilight 3:46 AM PDT 10:44 PM PDT
Moon 5:56 AM PDT (8/6) 8:06 PM PDT (8/6)
Length of Visible Light 15h 48m
Length of Day
14h 39m
Waning Crescent, 0% of the Moon is Illuminated
Aug 6
Waning Crescent
Aug 6
New
Aug 14
First Quarter
Aug 20
Full
Aug 28
Last Quarter

Hourly Weather History & Observations

Time (PDT) Temp. Heat Index Dew Point Humidity Pressure Visibility Wind Dir Wind Speed Gust Speed Precip Events Conditions
12:58 AM 61.0 °F - 52.9 °F 75% 29.99 in 10.0 mi West 6.9 mph - N/A   Clear
1:58 AM 58.3 °F - 52.7 °F 82% 29.99 in 10.0 mi West 4.6 mph - N/A   Clear
2:58 AM 56.5 °F - 52.2 °F 85% 29.99 in 10.0 mi West 2.3 mph - N/A   Clear
3:58 AM 55.9 °F - 52.2 °F 87% 29.99 in 10.0 mi West 3.5 mph - N/A   Clear
4:58 AM 54.5 °F - 51.4 °F 89% 29.99 in 10.0 mi WSW 2.3 mph - N/A   Clear
5:58 AM 54.0 °F - 51.1 °F 90% 30.00 in 10.0 mi WSW 3.5 mph - N/A   Clear
6:58 AM 54.0 °F - 51.4 °F 91% 30.01 in 10.0 mi SW 3.5 mph - N/A   Clear
7:58 AM 55.9 °F - 51.8 °F 86% 30.03 in 10.0 mi WNW 1.2 mph - N/A   Clear
8:58 AM 60.8 °F - 51.8 °F 72% 30.03 in 10.0 mi East 2.3 mph - N/A   Clear
9:58 AM 65.8 °F - 52.5 °F 62% 30.02 in 10.0 mi NNW 2.3 mph - N/A   Clear
10:58 AM 68.4 °F - 53.2 °F 58% 30.02 in 10.0 mi Variable 4.6 mph - N/A   Clear
11:58 AM 73.8 °F - 54.1 °F 50% 30.01 in 10.0 mi West 6.9 mph - N/A   Clear
12:58 PM 76.1 °F - 55.2 °F 48% 30.00 in 10.0 mi Variable 5.8 mph - N/A   Clear
1:58 PM 79.5 °F - 55.0 °F 43% 29.99 in 10.0 mi WSW 8.1 mph - N/A   Clear
2:58 PM 82.0 °F 81.4 °F 55.0 °F 39% 29.98 in 10.0 mi WSW 9.2 mph - N/A   Clear
3:58 PM 84.4 °F 83.1 °F 54.9 °F 36% 29.96 in 10.0 mi WNW 5.8 mph - N/A   Clear
4:58 PM 85.1 °F 83.8 °F 55.0 °F 36% 29.95 in 10.0 mi WNW 6.9 mph - N/A   Clear
5:58 PM 86.4 °F - 50.9 °F 29% 29.94 in 10.0 mi Variable 6.9 mph - N/A   Clear
6:58 PM 84.4 °F - 50.0 °F 30% 29.93 in 10.0 mi WNW 4.6 mph - N/A   Clear
7:58 PM 80.2 °F - 51.1 °F 36% 29.93 in 10.0 mi West 10.4 mph - N/A   Clear
8:58 PM 74.3 °F - 53.1 °F 47% 29.94 in 10.0 mi West 5.8 mph - N/A   Clear
9:58 PM 70.7 °F - 55.2 °F 58% 29.96 in 10.0 mi West 4.6 mph - N/A   Clear
10:58 PM 67.6 °F - 55.4 °F 65% 29.97 in 10.0 mi West 4.6 mph - N/A   Clear
11:58 PM 65.3 °F - 55.2 °F 70% 29.97 in 10.0 mi WSW 2.3 mph - N/A   Clear